Location: Bellflower
(33.8817°N, 118.1170°W)
Time: 13:45:25
(UTC+00:00)

MOS 1 Rocket - Pass Details

Date: 23 November 2020
Orbit: 614 x 831 km, 97.4° (Epoch: 21 January)

Event Time Altitude Azimuth Distance (km) Brightness Sun altitude
Rises 13:23:36 0° 152° (SSE) 2,950 7.2 -14.3°
Reaches altitude 10° 13:25:49 10° 145° (SE) 2,070 6.5 -13.9°
Maximum altitude 13:30:07 45° 74° (ENE) 941 4.4 -13.0°
Drops below altitude 10° 13:34:41 10° 2° (N) 2,207 5.7 -12.1°
Sets 13:37:07 0° 356° (N) 3,169 6.5 -11.6°
